Погода Остров Голомянный

Погода Остров Голомянный : погода сейчас, прогноз погоды и архив. Всё, что Вы хотите узнать о погоде Остров Голомянный!

Хотите узнать прогноз погоды Остров Голомянный? Тогда Вам сюда: Погода Остров Голомянный

Поиск расширенной информации на нашем сайте:

Другие новости

Новости СМИ2

Главная страница сайта

Новости сайта

03.07.2017

Напоминаем, что на нашем специализированном сайте Метеоцентр.Азия вы можете получить высокодетализированные автоматические прогнозы погоды по пунктам России, СНГ и мира в авиационном формате (включающие направление и скорость ветра, видимость, явления погоды, количество и форму облачности, нижнюю и верхнюю границу облачности).


Погода Остров Голомянный - сегодня

Время (UTC), дата Ветер
(°,м/с) 
Видим.   Явления Облачность Т
(°С)
Тd
(°С)
f(%) Тe
(°С)
Pmin
(гПа)
dP
(гПа)
Po
(мм)
O2
(г/м3)
Тmin Tmax R s Состояние
почвы
21 19.10.17 120 (ЮВ) 13-17{20}  4000 м  метель  8/8 720 м 
[Sc]
-8.9 -11.7 80 -17  1016.9  -1.7  762  318           
00 20.10.17 110 (В) 14-18{19}  2000 м  метель  8/8 750 м 
[Sc]
-9 -11.1 85 -17  1015  -1.9  761  318  -9.1    0.2  14  неравномерный
сухой снег
100% 
06 20.10.17 120 (ЮВ) 12-15{16}  2000 м  слаб. ливневой снег  10/10 150 м кучево-дожд. 
[Cb cap]
-8.6 -9.8 91 -16  1011.6  -1.6  758  316           
09 20.10.17 130 (ЮВ) 11-15{16}  2000 м  слаб. ливневой снег  10/10 150 м кучево-дожд. 
[Cb cap]
-8.1 -9.2 92 -15  1011.2  -0.5  758  316           
12 20.10.17 140 (ЮВ) 10-12{16}  4000 м  слаб. снег{ливн. осадки}  10/9 150 м средняя 
[Frnb|As op]
-8.1 -9.3 91 -15  1010.7  -0.4  757  315    -8  0.9     
15 20.10.17 130 (ЮВ) 7{12}  20000 м  позёмок{снег}  3/0 средняя 
[Ac trans]
-8.4 -9.4 92 -14  1010.8  0.1  757  316           
18 20.10.17 140 (ЮВ) 8-10{10}  4000 м  слаб. снег  10/0 средняя 
[As op]
-7.1 -8.1 93 -13  1010.9  0.1  757  314           
21 20.10.17 130 (ЮВ) 7{11}  2000 м  слаб. ливневой снег  10/10 100 м кучево-дожд. 
[Cb cap]
-6.2 -6.9 95 -11  1010.9  757  313           
00 21.10.17 130 (ЮВ) 2000 м  слаб. ливневой снег  н/о 
-5.7 -6.3 96 -11  1011.2  0.3  758  312  -8.4    0.8  14  неравномерный
сухой снег
100% 
03 21.10.17 150 (ЮВ) 7{10}  2000 м  слаб. ливневой снег  10/8 150 м кучево-дожд. 
[Cb cap]
-5.2 -5.8 96 -10  1011.4  0.2  758  312           
06 21.10.17 150 (ЮВ) 2000 м  слаб. ливневой снег  10/10 180 м кучево-дожд. 
[Cb cap]
-4.8 -5.3 96 -9  1012  0.6  758  312           
09 21.10.17 150 (ЮВ) 20000 м  позёмок{ливн. осадки}  10/6 210 м средняя 
[St|Ac As]
-5.2 -5.8 96 -10  1012.6  0.6  759  312           
12 21.10.17 150 (ЮВ) 4000 м  слаб. снег{ливн. осадки}  10/8 210 м средняя 
[Frnb|As op]
-5.3 -6 95 -10  1012.5  0.2  759  312    -4.8  0.4     
15 21.10.17 150 (ЮВ) 4000 м  слаб. снег  10/8 150 м средняя 
[Frnb|As op]
-5.3 -6 95 -9  1013.1  0.3  759  313           
18 21.10.17 140 (ЮВ) 4000 м  слаб. снег  10/8 150 м средняя 
[Frnb|As op]
-5.8 -6.3 96 -8  1013  0.1  759  313           
21 21.10.17 130 (ЮВ) 4000 м  слаб. снег  10/8 180 м средняя 
[Frnb|As op]
-6.4 -7 95 -9  1013.1  0.1  759  314           
00 22.10.17 100 (В) 4000 м  слаб. снег  10/10 480 м 
[Frnb]
-6.9 -7.5 95 -10  1013.3  0.2  759  315  -7.4    0.4  15  неравномерный
сухой снег
100% 
06 22.10.17 020 (С) 4000 м  слаб. снег  10/6 180 м средняя 
[Frnb|As op]
-9 -9.9 93 -15  1013.6  0.1  759  317           
09 22.10.17 360 (С) 8-11{11}  4000 м  слаб. снег  10/8 270 м средняя 
[Frnb|As op]
-10.1 -11.2 92 -17  1013.4  -0.2  759  319           
12 22.10.17 010 (С) 6{13}  4000 м  слаб. снег  10/8 270 м средняя 
[Frnb|As op]
-11 -12 92 -17  1013.2  -0.2  759  320    -6.4  0.5     
15 22.10.17 360 (С) 7{12}  4000 м  слаб. снег  10/6 400 м средняя 
[Sc|As op]
-11.1 -12.2 92 -17  1012.7  -0.4  759  320           
18 22.10.17 010 (С) 7-10{13}  4000 м  слаб. снег  10/8 240 м средняя 
[Frnb|As op]
-11.2 -12.3 92 -17  1012.3  -0.4  758  320           
21 22.10.17 010 (С) 6{11}  4000 м  слаб. снег  10/8 240 м средняя 
[Frnb|As op]
-11.4 -12.5 92 -17  1011.9  -0.5  758  320           
00 23.10.17 040 (СВ) 4000 м  слаб. снег  10/5 240 м средняя 
[Frnb|As op]
-12.2 -13.4 91 -17  1011.5  -0.5  758  321  -13    0.2  15  неравномерный
сухой снег
100% 
03 23.10.17 010 (С) 20000 м  {снег}  10/10 180 м 
[St]
-12.4 -13.6 91 -14  1010.7  -0.8  757  321           
Время (UTC), дата Ветер
(°,м/с) 
Видим.   Явления Облачность Т
(°С)
Тd
(°С)
f(%) Тe
(°С)
Pmin
(гПа)
dP
(гПа)
Po
(мм)
O2
(г/м3)
Тmin Tmax R s Состояние
почвы

Для получения пояснительной информации подведите курсор к названию столбца.

ПОГОДА Остров Голомянный - архив

Всё, что Вы хотите узнать о погоде Остров Голомянный - удобно и подробно!

Выберите нужную дату (начиная с 1 января 2015* года) и нажмите кнопку "Найти".
Будут отображены архивные сводки погоды по пункту Остров Голомянный, начиная с указанной даты.


Отображать данные в формате CSV (для использования в таблицах Excel)


Внимание! Наш архив погоды предназначен исключительно для личного некоммерческого использования в познавательных целях. Если Вам необходимы официальные справки о состоянии погоды (для производственных, юридических, коммерческих и т.п. целей), обращайтесь в органы Росгидромета.

*Примечание: данная дата относится к архиву по метеостанциям СССР (Россия, СНГ, Балтия).
Архив по метеостанциям Зарубежной Европы и Азии (кроме Китая) хранится 10 дней, по другим регионам земного шара (Китай, Африка, Америка, Австралия, Океания) - 1 день.

Остров Голомянный - район местоположения метеостанции


Название, широта, долгота, высота метеостанции:
Остров Голомянный 79.6°ш. 90.6°д. 8 м над ур. моря [Российская Федерация]

Дополнительная информация

В oтличие oт бoльшинства пoгoдных сайтoв мы публикуем пoдрoбную метеoинфoрмацию в детальнoм прoфессиoнальнoм фoрмате.

Характеристики температуры и влажнoсти вoздуха измеряются на высoте 2 м в тени вдали oт зданий и деревьев.
Скoрoсть ветра измеряется на высoте 10 м (на урoвне рoста челoвека скoрoсть ветра ниже в 1.5-2 раза). Если метеoстанция нахoдится в гoрoде или в лесу, тo скoрoсть ветра занижена на 2-4 м/с пo сравнению с oткрытым местoм. Скoрoсть ветра над акватoриями крупных рек и oзёр, а также на вершинах хoлмoв на 2-5 м/с выше, чем в oбычных услoвиях.
Атмoсфернoе давление в разных тoчках местнoсти мoжет значительнo oтличаться oт давления на метеoстанции, в зависимoсти oт услoвий рельефа (при пoдъёме на 10 м давление пoнижается примернo на 1 мм рт.ст.).